User: anonymous   Login
Location: Home
(40.5300°N, 105.0300°W)
Time: 11:10:18
(UTC-06:00)
Language:

STARLINK-2712 - Orbit

View from above orbital plane
View from above orbital plane
View from above satellite
View from above satellite

Ground track
Ground track

The orbit data is extracted from the following two-line orbital elements,

1 48674U 21044AN  21259.58334491 -.00065955  00000-0 -44475-2 0  9994
2 48674  53.0523 251.8839 0001474  59.1784  62.2203 15.06421667 18298
Epoch (UTC): 16 September 2021 14:00:01
Eccentricity: 0.0001474
inclination: 53.0523°
perigee height: 546 km
apogee height: 548 km
right ascension of ascending node: 251.8839°
argument of perigee: 59.1784°
revolutions per day: 15.06421667
mean anomaly at epoch: 62.2203°
orbit number at epoch: 1829

The dashed part of the orbit path shows where the satellite is in the earth's shadow,  

DLR